This demonstration page uses our WeatherBlox Daily Observations layout. Learn more.

Left ArrowRight Arrow

31.84235, -102.49876

Hourly Observations for August 4, 2015

Temp ( °F °C ) Dew Point ( °F °C ) Humidity (%) Winds ( mph kmh ) Pressure ( in mb ) Visibility ( mi km ) Precip ( " mm )
12:42 am 00:42 Mostly Cloudy 72 22.2 66 18.9 82 82 N 8 13 29.88 1012 10 16 0.00 0.03
12:53 am 00:53 Mostly Cloudy 72 22.2 67 19.4 84 84 ESE 7 11 29.88 1012 10 16 0.00 0.03
1:53 am 01:53 Partly Cloudy 72 22.2 67 19.4 84 84 ENE 8 13 29.85 1011 10 16 0.00 0.03
2:53 am 02:53 Mostly Clear 72 22.2 67 19.4 84 84 SSE 8 13 29.84 1011 10 16 0.00 0.00
3:53 am 03:53 Clear 72 22.2 67 19.4 84 84 S 6 9 29.84 1011 10 16 0.00 0.00
4:53 am 04:53 Clear 71 21.7 67 19.4 87 87 WSW 5 7 29.85 1011 10 16 0.00 0.00
5:53 am 05:53 undefined 71 21.7 67 19.4 87 87 WSW 3 6 29.86 1011 9 14 0.00 0.00
6:53 am 06:53 Clear 70 21.1 67 19.4 90 90 WSW 3 6 29.87 1012 8 13 0.00 0.00
7:53 am 07:53 Sunny with Mist and Fog 71 21.7 67 19.4 87 87 Calm 29.89 1012 6 10 0.00 0.00
8:53 am 08:53 Sunny 76 24.4 65 18.3 69 69 SSE 7 11 29.89 1012 10 16 0.00 0.00
9:29 am 09:29 Mostly Sunny 79 26.1 65 18.3 62 62 S 10 17 29.88 1012 10 16 0.00 0.00
9:53 am 09:53 Sunny 80 26.7 65 18.3 60 60 S 10 17 29.91 1013 10 16 0.00 0.00
10:53 am 10:53 Sunny 84 28.9 65 18.3 53 53 S 13 20 29.91 1013 10 16 0.00 0.00
11:53 am 11:53 Sunny 87 30.6 64 17.8 46 46 SSW 8 13 29.90 1012 10 16 0.00 0.00
12:53 pm 12:53 Sunny 90 32.2 61 16.1 38 38 SSE 9 15 29.88 1012 10 16 0.00 0.00
1:53 pm 13:53 Sunny 92 33.3 61 16.1 36 36 SE 9 15 29.86 1011 10 16 0.00 0.00
2:53 pm 14:53 Sunny 95 35 58 14.4 29 29 VRB 5 7 29.84 1010 10 16 0.00 0.00
3:53 pm 15:53 Sunny 97 36.1 56 13.3 25 25 SE 7 11 29.81 1010 10 16 0.00 0.00
4:53 pm 16:53 Sunny 98 36.7 54 12.2 23 23 SW 8 13 29.80 1009 10 16 0.00 0.00
5:53 pm 17:53 Sunny 98 36.7 52 11.1 21 21 Calm 29.78 1009 10 16 0.00 0.00
6:53 pm 18:53 Sunny 98 36.7 51 10.6 20 20 Calm 29.78 1009 10 16 0.00 0.00
7:53 pm 19:53 Mostly Cloudy 97 36.1 54 12.2 24 24 VRB 5 7 29.78 1009 10 16 0.00 0.00
8:53 pm 20:53 Clear 93 33.9 58 14.4 31 31 SE 12 19 29.80 1009 10 16 0.00 0.00
9:53 pm 21:53 Mostly Clear 91 32.8 59 15 34 34 SSE 7 11 29.82 1010 10 16 0.00 0.00
10:53 pm 22:53 Mostly Cloudy 89 31.7 59 15 36 36 S 9 15 29.84 1011 10 16 0.00 0.00
11:53 pm 23:53 Clear 87 30.6 61 16.1 42 42 S 13 20 29.85 1011 10 16 0.00 0.00

Powered by AerisWeather